{"data":{"norad_id":58883,"intl_designator":"2024-020H","name":"STARLINK-31209","alt_names":[],"object_type":"PAYLOAD","status":"ACTIVE","operator":null,"country":"US","launch_date":"2024-01-29","launch_site_code":"AFWTR","launch_vehicle":null,"mission":null,"orbit_class":"UNKNOWN","rcs_meters":null,"size_class":null,"mass_kg":null,"dimensions":null,"purposes":["comms"],"wikipedia_slug":null,"has_3d_model":false,"image_url":null,"decayed_at":null,"tle_current":{"epoch":"2026-05-25T04:51:12.034368Z","epoch_age_seconds":54050,"freshness":"FRESH","line1":"1 58883U 24020H   26145.20222262  .00000932  00000+0  38716-4 0  9998","line2":"2 58883  53.1594 326.4562 0001015 105.3856 254.7258 15.34389806129792","mean_motion":15.34389806,"eccentricity":0.0001015,"inclination_deg":53.1594,"raan_deg":326.4562,"arg_perigee_deg":105.3856,"mean_anomaly_deg":254.7258,"bstar":3.8716e-5,"rev_number":12979,"period_min":93.848381576122,"perigee_km":462.03919073142,"apogee_km":463.42788745086,"semimajor_km":6840.8705390911,"source":"CELESTRAK","updated_at":"2026-05-25T13:38:18.785099Z"}}}